Location: Zilina
(0.0000°N, 18.7333°E)
Time: 14:34:27
(UTC+01:00)

ATLAS CENTAUR R/B - Pass Details

Date: 19 February 2019
Orbit: 446 x 704 km, 64.7° (Epoch: 13 March)

Event Time Altitude Azimuth Distance (km) Brightness Sun altitude
Rises 18:54:40 0° 315° (NW) 2,937 5.5 -13.7°
Reaches altitude 10° 18:57:27 10° 300° (WNW) 1,985 4.9 -14.4°
Maximum altitude 19:00:54 22° 250° (WSW) 1,317 4.2 -15.2°
Drops below altitude 10° 19:04:10 10° 198° (SSW) 1,864 4.4 -16.0°
Sets 19:06:42 0° 182° (S) 2,709 5.0 -16.6°
